This demonstration page uses our WeatherBlox Daily Observations layout. Learn more.

Left ArrowRight Arrow

44.31136, -96.79839

Hourly Observations for June 10, 2019

Temp ( °F °C ) Dew Point ( °F °C ) Humidity (%) Winds ( mph kmh ) Pressure ( in mb ) Visibility ( mi km ) Precip ( " mm )
12:56 am 00:56 Clear 51 10.6 41 5 69 69 SW 3 6 30.32 1027 10 16 0.00 0.00
1:56 am 01:56 Clear 51 10.6 42 5.6 71 71 SW 5 7 30.31 1026 10 16 0.00 0.00
2:56 am 02:56 Clear 50 10 44 6.7 80 80 SW 3 6 30.30 1026 10 16 0.00 0.00
3:56 am 03:56 Clear 51 10.6 42 5.6 71 71 WSW 7 11 30.30 1026 10 16 0.00 0.00
4:56 am 04:56 Clear 50 10 42 5.6 74 74 W 5 7 30.30 1026 10 16 0.00 0.00
5:56 am 05:56 Sunny 50 10 44 6.7 80 80 WNW 3 6 30.32 1027 10 16 0.00 0.00
6:56 am 06:56 Sunny 52 11.1 47 8.3 83 83 W 5 7 30.33 1027 10 16 0.00 0.00
7:56 am 07:56 Sunny 57 13.9 49 9.4 74 74 W 6 9 30.33 1027 10 16 0.00 0.00
8:56 am 08:56 Sunny 62 16.7 46 7.8 56 56 W 14 22 30.32 1027 10 16 0.00 0.00
9:56 am 09:56 Sunny 66 18.9 46 7.8 49 49 WNW 13 20 30.32 1027 10 16 0.00 0.00
10:56 am 10:56 Sunny 68 20 45 7.2 44 44 W 13 20 30.31 1027 10 16 0.00 0.00
11:56 am 11:56 Sunny 70 21.1 43 6.1 38 38 WNW 15 24 30.30 1026 10 16 0.00 0.00
12:56 pm 12:56 Mostly Sunny 71 21.7 45 7.2 39 39 W 17 28 30.29 1026 10 16 0.00 0.00
1:56 pm 13:56 Mostly Cloudy 71 21.7 46 7.8 41 41 W 13 20 30.27 1025 10 16 0.00 0.00
2:56 pm 14:56 Mostly Cloudy 71 21.7 43 6.1 36 36 WNW 12 19 30.25 1024 10 16 0.00 0.00
3:56 pm 15:56 Mostly Sunny 74 23.3 43 6.1 33 33 W 15 24 30.23 1024 10 16 0.00 0.03
4:56 pm 16:56 Mostly Sunny 74 23.3 41 5 31 31 W 21 33 30.21 1023 10 16 0.00 0.00
5:56 pm 17:56 Cloudy 67 19.4 46 7.8 47 47 N 8 13 30.22 1023 10 16 0.00 0.00
7:56 pm 19:56 Sunny 67 19.4 51 10.6 57 57 S 5 7 30.19 1022 10 16 0.00 0.00
8:56 pm 20:56 Sunny 65 18.3 49 9.4 56 56 SE 7 11 30.16 1022 10 16 0.00 0.00
9:56 pm 21:56 Clear 64 17.8 46 7.8 52 52 NNE 5 7 30.17 1022 10 16 0.00 0.00
10:56 pm 22:56 Clear 59 15 47 8.3 64 64 SSE 6 9 30.17 1022 10 16 0.00 0.00
11:56 pm 23:56 Cloudy 60 15.6 48 8.9 65 65 S 7 11 30.19 1022 8 13 0.00 0.00

Powered by AerisWeather